Location: Mansh?yat as Sayl al Jad?dah
(24.0833°N, 32.9167°E)
Time: 19:44:25
(UTC+00:00)

Daily predictions for brighter satellites

Satellite Brightness Start Highest point End
(mag) Time Altitude Azimuth Time Altitude Azimuth Time Altitude Azimuth
FALCON 9 R/B 3.9 16:15:36 10° W 16:20:41 52° N 16:38:23 10° ENE
CZ-2C R/B 2.6 16:22:51 10° NNE 16:27:58 61° E 16:33:08 10° S
Cosmos 2346 Rocket 4.4 16:24:33 10° N 16:30:36 76° E 16:36:37 10° S
SAR-Lupe-4 3.9 16:27:47 10° NNE 16:31:12 43° E 16:34:37 10° S
HJ-1C 4.5 16:28:42 10° SE 16:31:23 24° ENE 16:34:04 10° NNE
Cosmos 2285 Rocket 4.2 16:25:37 10° N 16:31:54 56° ENE 16:38:11 10° SSE
CZ-2C R/B 4.2 16:29:27 10° S 16:34:11 46° W 16:38:47 10° NNW
CZ-4 R/B 1.5 16:30:09 10° SSE 16:34:13 62° ENE 16:38:22 10° N
ISS -2.6 16:33:38 10° NW 16:36:51 43° SW 16:40:02 10° SSE
H-2A R/B 2.0 16:32:10 10° SSE 16:37:23 77° ENE 16:42:28 10° N
Cosmos 1908 3.6 16:34:32 10° SSE 16:38:09 40° E 16:41:46 10° NNE
ATLAS 5 CENTAUR R/B 1.7 16:37:47 10° S 16:41:22 38° ESE 16:45:01 10° NE
Atlas Centaur 2 3.5 16:33:27 10° W 16:41:49 65° NNW 16:50:06 10° ENE
IRS-1C Rocket 4.1 16:39:29 10° SSE 16:44:46 85° ENE 16:50:03 10° NNW
Meteor 1-16 Rocket 4.1 16:40:36 10° S 16:45:49 63° E 16:51:04 10° NNE
ATLAS CENTAUR R/B 4.1 16:44:10 10° WNW 16:47:33 22° WSW 16:51:04 10° SSW
Cosmos 1953 2.3 16:45:06 10° S 16:49:09 87° E 16:53:12 10° N
SAR-Lupe-1 4.1 16:46:56 10° N 16:50:31 83° WNW 16:54:04 10° SSW
ATLAS 2AS CENTAUR R/B 4.2 16:46:05 10° SE 16:50:38 17° ESE 16:55:15 10° ENE
Cosmos 494 Rocket 4.5 16:46:03 10° SSE 16:50:46 36° E 16:55:32 10° NE
Cosmos 2082 Rocket 4.4 16:47:03 10° SW 16:52:00 30° WNW 16:56:58 10° N
SEDSat Delta rocket 4.3 16:45:49 10° W 16:52:27 63° NNW 16:58:33 10° ENE
Lacrosse 5 rocket 1.0 16:55:40 10° SSW 16:59:26 78° ESE 17:03:27 10° NE
Cosmos 1689 Rocket 3.8 16:56:53 10° N 16:59:31 34° WNW 17:02:06 10° SW
Cosmos 2369 3.7 16:54:43 10° N 17:00:24 65° ENE 17:06:02 10° SSE
Cosmos 332 Rocket 4.4 16:56:06 10° NNW 17:00:51 59° WSW 17:05:35 10° S
Okean-O 2.7 16:57:55 10° S 17:02:20 82° WSW 17:06:46 10° NNW
Cosmos 2233 Rocket 4.4 16:56:23 10° SSW 17:02:33 69° W 17:08:48 10° N
SJ-6B 4.2 17:12:40 19° ENE 17:12:40 19° ENE 17:14:52 10° NNE
YAOGAN 1 3.6 17:08:37 10° S 17:12:46 47° W 17:16:56 10° NNW
Aurora 2 Rocket 2.6 17:09:25 10° WSW 17:13:26 69° SSE 17:16:35 24° E
Cosmos 1703 3.7 17:11:07 10° NNE 17:14:45 38° E 17:15:53 30° ESE
Cosmos 2278 3.9 17:09:41 10° N 17:15:11 49° ENE 17:18:38 22° SE
USA 186 2.6 17:16:10 32° ENE 17:16:10 32° ENE 17:19:01 10° NNE
Cosmos 1346 Rocket 2.6 17:12:33 10° N 17:16:27 65° E 17:19:16 18° SSE
Delta 142 4.0 17:14:43 10° WSW 17:19:35 88° SSE 17:23:35 22° ENE
Cosmos 1315 Rocket 4.4 17:21:04 10° SSW 17:24:53 38° W 17:28:42 10° NNW
Meteor 1-21 Rocket 4.1 17:20:52 10° N 17:26:26 90° E 17:31:58 10° S
Cosmos 1891 Rocket 4.5 17:21:14 10° S 17:27:32 70° E 17:33:56 10° N
Lacrosse 4 Rocket 3.1 17:25:03 10° NNE 17:27:28 19° NE 17:27:28 19° NE
GPS 2-15 Rocket1 3.4 17:27:15 10° WSW 17:31:45 49° S 17:32:43 42° SE
Okean 1-7 Rocket 3.9 17:27:41 10° N 17:32:12 68° W 17:36:44 10° S
USA 32 4.0 17:31:34 10° S 17:36:47 82° W 17:42:00 10° N
Cosmos 2034 Rocket 4.1 17:34:14 19° SSE 17:38:27 49° E 17:44:22 10° NNE
Cosmos 2344 4.0 17:31:23 10° S 17:38:49 35° ESE 17:45:25 10° NE
Cosmos 1300 2.5 17:38:25 53° S 17:39:15 82° E 17:43:03 10° N
CZ-4C R/B 2.0 17:35:12 10° SW 17:39:37 69° WNW 17:44:39 10° NNE
CSL-04 Rocket 4.1 17:34:26 10° S 17:39:44 61° WSW 17:44:59 10° NNW
Cosmos 1626 Rocket 3.4 17:39:38 10° N 17:44:02 85° E 17:45:06 51° SSE
Cosmos 1420 Rocket 4.3 17:43:35 10° NNW 17:48:42 66° WSW 17:51:32 26° S
SL-16 R/B 3.4 17:45:27 10° N 17:49:06 25° NE 17:49:06 25° NE
Cosmos 1464 Rocket 4.1 17:45:17 10° S 17:51:39 80° W 17:57:59 10° N
OBJECT-B 3.1 17:56:35 19° N 17:56:35 19° N 17:57:36 10° N
Molniya-1 3.9 17:51:45 10° SSW 17:55:12 82° WNW 18:02:50 10° NNE
CZ-2C R/B 2.3 17:55:07 10° WNW 17:57:26 37° WNW 17:57:26 37° WNW
Cosmos 1452 Rocket 3.3 17:53:28 10° N 17:58:45 76° ENE 17:58:57 74° E
MetOp-A 4.4 17:56:14 29° S 17:59:01 68° WSW 18:04:21 10° NNW
IRS-1A Rocket 4.1 18:01:15 64° ENE 18:01:15 64° ENE 18:06:41 10° N
Cosmos 1269 Rocket 4.0 18:02:37 64° NE 18:02:37 64° NE 18:07:09 10° NNE
Cosmos 1980 Rocket 3.0 17:56:44 10° NNW 18:02:07 48° WSW 18:05:09 24° SSW
OAO 2 Rocket 4.4 17:58:38 10° NW 18:03:16 34° NNE 18:03:32 34° NNE
CENTAUR R/B 4.2 17:57:52 10° N 18:05:02 29° NE 18:05:32 28° ENE
Lacrosse 5 3.8 18:04:09 10° WNW 18:08:09 24° WSW 18:10:15 18° SSW
Centaur AC-119 4.0 18:06:36 10° W 18:07:35 25° W 18:07:35 25° W
Meteor 1-11 4.1 18:03:31 10° N 18:09:18 85° E 18:09:34 81° SE
MOS 1 4.1 18:11:26 80° ENE 18:11:26 80° ENE 18:16:59 10° N
Nadezhda 4 Rocket 4.3 18:07:08 10° N 18:12:08 49° NE 18:12:08 49° NE
Ariane Rocket 3.6 18:25:23 54° NW 18:25:23 54° NW 18:29:22 10° NNW
NOSS 3-4 (A) 4.2 18:22:21 10° SW 18:27:49 46° WNW 18:33:26 10° NNE
NOSS 3-4 (C) 4.2 18:22:22 10° SW 18:27:53 47° WNW 18:33:34 10° NNE
Atlas Centaur 2 3.3 18:24:05 10° WNW 18:32:27 56° N 18:33:47 51° NE
ATLAS 2A CENTAUR R/B 4.3 18:03:17 10° WNW 18:34:09 51° SW 18:36:04 45° S
ATLAS 2AS CENTAUR R/B 3.1 18:33:07 10° SSW 18:40:53 73° WNW 18:48:48 10° NNE
Cosmos 2322 Rocket 3.6 18:36:24 10° N 18:39:17 30° N 18:39:17 30° N
Centaur D-1AR AC-36 4.3 18:39:48 10° SW 18:42:53 20° SW 18:42:53 20° SW
ATLAS 3B CENTAUR R/B 4.0 18:40:40 10° WSW 19:01:17 76° SSE 19:02:15 73° SE
CENTAUR R/B 4.3 19:47:37 10° NW 19:52:44 38° NW 19:52:44 38° NW
